SMOG-P (44832 NORAD) Tracking and Keplerian Element Data

This shows tracking and keplerian element data for the satellite.

Feedback or suggestion? Click here.




ElementValue
Catalog44832
NameSMOG-P
Epoch Orbit662
Epoch Day17.74879402
Epoch Year2020
RAAN246.673
Inclination96.9985
Eccentricity0.0040321
Argument of Perigee94.1737
Mean Anonmoly266.4135
Mean Motion15.66760411
Decay Rate0.00021356
L11 44832U 19084J 20017.74879402 .00021356 00000-0 19515-3 0 9995
L22 44832 96.9985 246.6730 0040321 94.1737 266.4135 15.66760411 6626

Live tracking and technical data element details for SMOG-P (NORAD 44832). SMOG-P can be tracked NOW for your location showing map with azimuth and elevation plus other details from your city location.

Track the satellite on the map from your city or location and see movement details for azimuth, elevation, latitude, longitude, range, height, and movement on the map or in text.







IsCatalogInMostPopularTable: catalog: 44832, numindb: 9
Update: records affected: 1



GetName: 44832 SMOG-P

Hit Count: updated at: Sat, 18 Jan 2020 18:23:10 GMT